Overview Statistics Trail Chart Weather Telemetry Raw packets
 

This is the latest recevied weather packets stored in our database for station/object W5MAI. If no packets are shown the sender has not sent any weather packets the latest 10 day(s).

<< 5 6 7 8 9 10 11 >>
Time Temp. Humidity Pressure Rain* Wind** Luminosity Snow
1788560028 32.22° C 58% 1014.1 hPa 0 mm - 494 W/m² -
1788559427 32.22° C 58% 1014.2 hPa 0 mm - 580 W/m² -
1788558826 32.22° C 59% 1014.1 hPa 0 mm - 591 W/m² -
1788558256 32.22° C 60% 1014.5 hPa 0 mm - 394 W/m² -
1788556419 31.11° C 61% 1015 hPa 0 mm - 260 W/m² -
1788555832 31.67° C 61% 1015.2 hPa 0 mm - 264 W/m² -
1788555262 31.67° C 62% 1015.1 hPa 0 mm - 339 W/m² -
1788554616 31.11° C 63% 1015.2 hPa 0 mm - 353 W/m² -
1788554045 31.67° C 64% 1015.3 hPa 0 mm - 309 W/m² -
1788553463 31.11° C 63% 1015.2 hPa 0 mm - 339 W/m² -
1788551617 31.11° C 63% 1015.6 hPa 0 mm - 329 W/m² -
1788551045 31.11° C 64% 1015.7 hPa 0 mm - 329 W/m² -
1788550447 31.67° C 64% 1015.8 hPa 0 mm - 371 W/m² -
1788549858 31.11° C 64% 1015.8 hPa 0 mm - 473 W/m² -
1788549214 31.11° C 66% 1016 hPa 0 mm - 772 W/m² -
1788548625 30.56° C 68% 1016.1 hPa 0 mm - 615 W/m² -
1788548052 30.56° C 68% 1016.2 hPa 0 mm - 455 W/m² -
1788547407 30.56° C 68% 1016.2 hPa 0 mm - 443 W/m² -
1788546231 30.56° C 68% 1016.3 hPa 0 mm - 471 W/m² -
1788545661 30.56° C 68% 1016.5 hPa 0 mm - 441 W/m² -
1788545011 30° C 69% 1016.5 hPa 0 mm - 515 W/m² -
1788544440 30° C 69% 1016.6 hPa 0 mm - 478 W/m² -
1788543861 30° C 70% 1016.7 hPa 0 mm - 485 W/m² -
1788543210 30° C 73% 1016.7 hPa 0 mm - 457 W/m² -
1788542614 29.44° C 74% 1016.9 hPa 0 mm - 404 W/m² -

* Rain latest hour (hover to see other rain measurements)
** Current wind speed in m/s (hover to see current wind gust speed)